This is the latest recevied weather packets stored in our database for station/object KJ4EBE. If no packets are shown the sender has not sent any weather packets the latest 10 day(s).
| Time | Temp. | Humidity | Pressure | Rain* | Wind** | Luminosity | Snow |
|---|---|---|---|---|---|---|---|
| 1777900097 | 15.56° C | 89% | 1013.7 hPa | 0 mm | - | 52 W/m² | - |
| 1777899794 | 15.56° C | 89% | 1013.7 hPa | 0 mm | - | 46 W/m² | - |
| 1777899490 | 15° C | 89% | 1013.7 hPa | 0 mm | - | 46 W/m² | - |
| 1777899189 | 15° C | 90% | 1013.6 hPa | 0 mm | - | 44 W/m² | - |
| 1777898886 | 15° C | 90% | 1013.3 hPa | 0 mm | - | 42 W/m² | - |
| 1777898583 | 14.44° C | 91% | 1013.4 hPa | 0 mm | - | 36 W/m² | - |
| 1777898280 | 14.44° C | 91% | 1013.4 hPa | 0 mm | - | 31 W/m² | - |
| 1777897977 | 14.44° C | 91% | 1013.6 hPa | 0 mm | - | 27 W/m² | - |
| 1777897673 | 14.44° C | 91% | 1013.7 hPa | 0 mm | - | 29 W/m² | - |
| 1777897369 | 14.44° C | 92% | 1013.6 hPa | 0 mm | - | 26 W/m² | - |
| 1777897065 | 13.89° C | 92% | 1013.4 hPa | 0 mm | - | 22 W/m² | - |
| 1777896762 | 13.89° C | 92% | 1013.4 hPa | 0 mm | - | 16 W/m² | - |
| 1777896460 | 13.89° C | 92% | 1013.4 hPa | 0 mm | - | 12 W/m² | - |
| 1777896157 | 13.89° C | 92% | 1013.3 hPa | 0 mm | - | 11 W/m² | - |
| 1777895855 | 13.89° C | 92% | 1013.1 hPa | 0 mm | - | 7 W/m² | - |
| 1777895552 | 13.89° C | 92% | 1013.1 hPa | 0 mm | - | 5 W/m² | - |
| 1777895249 | 13.89° C | 92% | 1013.1 hPa | 0 mm | - | 3 W/m² | - |
| 1777894947 | 13.89° C | 92% | 1012.9 hPa | 0 mm | - | 2 W/m² | - |
| 1777894644 | 13.89° C | 92% | 1013.1 hPa | 0 mm | - | 1 W/m² | - |
| 1777894341 | 13.89° C | 92% | 1013 hPa | 0 mm | - | 0 W/m² | - |
| 1777894039 | 13.89° C | 92% | 1013.3 hPa | 0 mm | - | 0 W/m² | - |
| 1777893735 | 13.89° C | 92% | 1013.2 hPa | 0 mm | - | 0 W/m² | - |
| 1777893431 | 13.89° C | 91% | 1013.4 hPa | 0 mm | - | 0 W/m² | - |
| 1777893128 | 13.89° C | 91% | 1013.6 hPa | 0 mm | - | 0 W/m² | - |
| 1777892824 | 13.89° C | 91% | 1013.4 hPa | 0 mm | - | 0 W/m² | - |
* Rain latest hour (hover to see other rain measurements)
** Current wind speed in m/s (hover to see current wind gust speed)